sat.trackr.live / text

‹ back to catalog

STARLINK-5338

NORAD 55286 · 2023-010T

PAYLOAD ACTIVE UNKNOWN

§ Identity

Operator
Country
US
Launch date
2023-01-19
Launch site
AFWTR
Launch vehicle
Mass (kg)
RCS (m²)

Purposes: comms

External: N2YO · Heavens-Above · Gunter

§ Orbital elements

Epoch: 2026-05-24T20:03:48.098304Z

Period
96.11 min
Inclination
69.9988°
Eccentricity
0.0003733
Mean motion
14.98330881 rev/d
Perigee alt
569.5 km
Apogee alt
574.6 km
Semi-major
6,950.2 km
B*
1.0871e-5
RAAN
192.5239°
Arg perigee
268.4379°
Mean anomaly
91.6353°
Rev number
18,467

§ Raw data

STARLINK-53381 55286U 23010T   26144.83597336  .00000037  00000+0  10871-4 0  99932 55286  69.9988 192.5239 0003733 268.4379  91.6353 14.98330881184671

JSON: /api/v1/satellites/55286 · /tle

For live sub-satellite position, see the globe view (requires WebGL).

§ Visibility from observer

Set your observer location to see the next 7 days of passes ≥ 10°. The values pass through the URL so the page stays shareable.

No JS? Fill the form by hand. The geolocation button needs JavaScript.